| time (UTC) | temp F | wind direction | speed MPH | gust MPH | rain 1hr in | rain 24hr in | rain mn in | humidity % | barometer mb |
| 20260508082529 | 59 | 107 | 2.0 | 2.0 | 0.00 | 0.00 | 0.00 | 72 | |
| 20260508081522 | 58 | 106 | 1.0 | 4.0 | 0.00 | 0.00 | 0.00 | 74 | |
| 20260508080525 | 58 | 106 | 2.0 | 5.0 | 0.00 | 0.00 | 0.00 | 77 | |
| 20260508075538 | 57 | 107 | 3.0 | 5.0 | 0.00 | 0.00 | 0.00 | 78 | |
| 20260508074541 | 57 | 107 | 2.0 | 5.0 | 0.00 | 0.00 | 0.00 | 78 | |
| 20260508073554 | 56 | 99 | 2.0 | 5.0 | 0.00 | 0.00 | 0.00 | 80 | |
| 20260508072522 | 56 | 97 | 4.0 | 6.0 | 0.00 | 0.00 | 0.00 | 81 | |
| 20260508071521 | 55 | 87 | 4.0 | 5.0 | 0.00 | 0.00 | 0.00 | 82 | |
| 20260508070555 | 55 | 84 | 2.0 | 5.0 | 0.00 | 0.00 | 0.00 | 83 | |
| 20260508065547 | 54 | 83 | 4.0 | 5.0 | 0.00 | 0.00 | 0.00 | 84 | |
| 20260508064600 | 54 | 77 | 3.0 | 5.0 | 0.00 | 0.00 | 0.00 | 86 | |
| 20260508063543 | 53 | 66 | 4.0 | 5.0 | 0.00 | 0.00 | 0.00 | 87 | |
| 20260508062531 | 53 | 44 | 1.0 | 2.0 | 0.00 | 0.00 | 0.00 | 88 | |
| 20260508061605 | 52 | 44 | 2.0 | 3.0 | 0.00 | 0.00 | 0.00 | 89 | |
| 20260508060527 | 52 | 44 | 2.0 | 4.0 | 0.00 | 0.00 | 0.00 | 90 | |
| 20260508055540 | 51 | 44 | 3.0 | 5.0 | 0.00 | 0.00 | 0.00 | 90 | |
| 20260508054523 | 51 | 42 | 2.0 | 3.0 | 0.00 | 0.00 | 0.00 | 90 | |
| 20260508053527 | 50 | 42 | 1.0 | 2.0 | 0.00 | 0.00 | 0.00 | 90 | |
| 20260508052520 | 50 | 42 | 2.0 | 4.0 | 0.00 | 0.00 | 0.00 | 90 | |
| 20260508051524 | 50 | 41 | 2.0 | 3.0 | 0.00 | 0.00 | 0.00 | 90 | |
| 20260508050533 | 50 | 41 | 2.0 | 4.0 | 0.00 | 0.00 | 0.00 | 90 | |
| 20260508045536 | 49 | 40 | 1.0 | 4.0 | 0.00 | 0.00 | 0.00 | 90 | |
| 20260508044550 | 49 | 40 | 0.0 | 2.0 | 0.00 | 0.00 | 0.00 | 90 | |
| 20260508043542 | 49 | 40 | 3.0 | 4.0 | 0.00 | 0.00 | 0.00 | 90 | |
| 20260508042525 | 49 | 38 | 0.0 | 0.0 | 0.00 | 0.00 | 0.00 | 90 | |
| 20260508041539 | 49 | 38 | 0.0 | 0.0 | 0.00 | 0.00 | 0.00 | 90 | |
| 20260508040523 | 49 | 38 | 0.0 | 0.0 | 0.00 | 0.00 | 0.00 | 90 | |
| 20260508035552 | 49 | 38 | 0.0 | 0.0 | 0.00 | 0.00 | 0.00 | 90 | |
| 20260508034544 | 49 | 38 | 0.0 | 0.0 | 0.00 | 0.00 | 0.00 | 90 | |
| 20260508033528 | 49 | 38 | 0.0 | 0.0 | 0.00 | 0.00 | 0.00 | 90 | |
| 20260508032531 | 49 | 38 | 0.0 | 0.0 | 0.00 | 0.00 | 0.00 | 90 | |
| 20260508031525 | 49 | 38 | 0.0 | 0.0 | 0.00 | 0.00 | 0.00 | 89 | |
| 20260508030529 | 48 | 38 | 0.0 | 0.0 | 0.00 | 0.00 | 0.00 | 89 | |
| 20260508025523 | 48 | 38 | 0.0 | 0.0 | 0.00 | 0.00 | 0.00 | 89 | |
| 20260508024521 | 48 | 38 | 0.0 | 0.0 | 0.00 | 0.00 | 0.00 | 89 | |
| 20260508023534 | 49 | 38 | 0.0 | 0.0 | 0.00 | 0.00 | 0.00 | 89 | |
| 20260508022538 | 49 | 38 | 0.0 | 0.0 | 0.00 | 0.00 | 0.00 | 89 | |
| 20260508021533 | 49 | 38 | 0.0 | 0.0 | 0.00 | 0.00 | 0.00 | 88 | |
| 20260508020535 | 49 | 38 | 0.0 | 0.0 | 0.00 | 0.00 | 0.00 | 88 | |
| 20260508015548 | 49 | 38 | 0.0 | 0.0 | 0.00 | 0.00 | 0.00 | 88 | |
| 20260508014549 | 50 | 38 | 0.0 | 0.0 | 0.00 | 0.00 | 0.00 | 88 | |
| 20260508013540 | 50 | 38 | 0.0 | 0.0 | 0.00 | 0.00 | 0.00 | 88 | |
| 20260508012524 | 50 | 38 | 0.0 | 0.0 | 0.00 | 0.00 | 0.00 | 88 | |
| 20260508011528 | 50 | 38 | 0.0 | 0.0 | 0.00 | 0.00 | 0.00 | 88 | |
| 20260508010521 | 50 | 38 | 0.0 | 0.0 | 0.00 | 0.00 | 0.00 | 88 | |
| 20260508005525 | 50 | 38 | 0.0 | 0.0 | 0.00 | 0.00 | 0.00 | 88 | |
| 20260508004538 | 50 | 38 | 0.0 | 0.0 | 0.00 | 0.00 | 0.00 | 88 | |
| 20260508003522 | 50 | 38 | 0.0 | 0.0 | 0.00 | 0.00 | 0.00 | 87 | |
| 20260508002531 | 50 | 38 | 0.0 | 0.0 | 0.00 | 0.00 | 0.00 | 87 | |
| 20260508001534 | 50 | 38 | 0.0 | 0.0 | 0.00 | 0.00 | 0.00 | 87 | |
| 20260508000547 | 50 | 38 | 0.0 | 0.0 | 0.00 | 0.00 | 0.00 | 86 | |
| 20260507235531 | 50 | 38 | 0.0 | 0.0 | 0.00 | 0.00 | 0.00 | 87 | |
| 20260507234545 | 51 | 38 | 0.0 | 0.0 | 0.00 | 0.00 | 0.00 | 87 | |
| 20260507233527 | 51 | 38 | 0.0 | 0.0 | 0.00 | 0.00 | 0.00 | 86 | |
| 20260507232541 | 51 | 38 | 0.0 | 0.0 | 0.00 | 0.00 | 0.00 | 86 | |
| 20260507231525 | 51 | 38 | 0.0 | 0.0 | 0.00 | 0.00 | 0.00 | 85 | |
| 20260507230523 | 51 | 38 | 0.0 | 0.0 | 0.00 | 0.00 | 0.00 | 85 | |
| 20260507225557 | 51 | 38 | 0.0 | 0.0 | 0.00 | 0.00 | 0.00 | 85 | |
| 20260507224529 | 51 | 38 | 0.0 | 0.0 | 0.00 | 0.00 | 0.00 | 84 | |
| 20260507223533 | 51 | 38 | 0.0 | 0.0 | 0.00 | 0.00 | 0.00 | 84 | |
| 20260507222546 | 51 | 38 | 0.0 | 4.0 | 0.00 | 0.00 | 0.00 | 84 | |
| 20260507221530 | 51 | 38 | 2.0 | 4.0 | 0.00 | 0.00 | 0.00 | 83 | |
| 20260507220543 | 52 | 38 | 2.0 | 2.0 | 0.00 | 0.00 | 0.00 | 83 | |
| 20260507215527 | 52 | 38 | 2.0 | 3.0 | 0.00 | 0.00 | 0.00 | 83 | |
| 20260507214526 | 52 | 38 | 2.0 | 3.0 | 0.00 | 0.00 | 0.00 | 83 | |
| 20260507213539 | 52 | 38 | 1.0 | 4.0 | 0.00 | 0.00 | 0.00 | 82 | |
| 20260507212523 | 52 | 38 | 3.0 | 5.0 | 0.00 | 0.00 | 0.00 | 82 | |
| 20260507211556 | 52 | 38 | 1.0 | 4.0 | 0.00 | 0.00 | 0.00 | 82 | |
| 20260507210548 | 52 | 38 | 2.0 | 3.0 | 0.00 | 0.00 | 0.00 | 81 | |
| 20260507205532 | 52 | 38 | 2.0 | 3.0 | 0.00 | 0.00 | 0.00 | 81 | |
| 20260507204546 | 52 | 38 | 2.0 | 4.0 | 0.00 | 0.00 | 0.00 | 81 | |
| 20260507203525 | 52 | 38 | 3.0 | 5.0 | 0.00 | 0.00 | 0.00 | 81 | |
| 20260507202529 | 52 | 38 | 3.0 | 6.0 | 0.00 | 0.00 | 0.00 | 81 | |
| 20260507201543 | 52 | 35 | 3.0 | 5.0 | 0.00 | 0.00 | 0.00 | 81 | |
| 20260507200555 | 53 | 36 | 3.0 | 5.0 | 0.00 | 0.00 | 0.00 | 81 | |
| 20260507195547 | 53 | 36 | 1.0 | 5.0 | 0.00 | 0.00 | 0.00 | 81 | |
| 20260507194550 | 53 | 35 | 3.0 | 6.0 | 0.00 | 0.00 | 0.00 | 81 | |
| 20260507193538 | 53 | 35 | 4.0 | 6.0 | 0.00 | 0.00 | 0.00 | 81 | |
| 20260507192521 | 53 | 38 | 4.0 | 7.0 | 0.00 | 0.00 | 0.00 | 81 | |
| 20260507191554 | 53 | 24 | 4.0 | 6.0 | 0.00 | 0.00 | 0.00 | 80 | |
| 20260507190547 | 53 | 19 | 2.0 | 5.0 | 0.00 | 0.00 | 0.00 | 80 | |
| 20260507185529 | 53 | 17 | 3.0 | 6.0 | 0.00 | 0.00 | 0.00 | 80 | |
| 20260507184533 | 54 | 16 | 4.0 | 7.0 | 0.00 | 0.00 | 0.00 | 79 | |
| 20260507183527 | 54 | 23 | 3.0 | 6.0 | 0.00 | 0.00 | 0.00 | 79 | |
| 20260507182531 | 54 | 32 | 5.0 | 7.0 | 0.00 | 0.00 | 0.00 | 79 | |
| 20260507181540 | 54 | 30 | 5.0 | 7.0 | 0.00 | 0.00 | 0.00 | 79 | |
| 20260507180524 | 54 | 41 | 4.0 | 7.0 | 0.00 | 0.00 | 0.00 | 79 | |
| 20260507175536 | 54 | 33 | 4.0 | 8.0 | 0.00 | 0.00 | 0.00 | 79 | |
| 20260507174540 | 54 | 14 | 4.0 | 7.0 | 0.00 | 0.00 | 0.00 | 79 | |
| 20260507173524 | 54 | 18 | 5.0 | 8.0 | 0.00 | 0.00 | 0.00 | 79 | |
| 20260507172557 | 54 | 18 | 5.0 | 8.0 | 0.00 | 0.00 | 0.00 | 78 | |
| 20260507171529 | 55 | 18 | 6.0 | 8.0 | 0.00 | 0.00 | 0.00 | 78 | |
| 20260507170558 | 55 | 16 | 7.0 | 8.0 | 0.00 | 0.00 | 0.00 | 78 | |
| 20260507165522 | 55 | 5 | 6.0 | 9.0 | 0.00 | 0.00 | 0.00 | 78 | |
| 20260507164527 | 55 | 14 | 7.0 | 9.0 | 0.00 | 0.00 | 0.00 | 78 | |
| 20260507163540 | 55 | 16 | 6.0 | 8.0 | 0.00 | 0.00 | 0.00 | 78 | |
| 20260507162523 | 55 | 9 | 6.0 | 8.0 | 0.00 | 0.00 | 0.00 | 78 | |
| 20260507161536 | 55 | 20 | 6.0 | 8.0 | 0.00 | 0.00 | 0.00 | 77 | |
| 20260507160549 | 55 | 12 | 5.0 | 8.0 | 0.00 | 0.00 | 0.00 | 77 | |
| 20260507155543 | 55 | 16 | 5.0 | 7.0 | 0.00 | 0.00 | 0.00 | 77 | |
| 20260507154534 | 55 | 15 | 6.0 | 9.0 | 0.00 | 0.00 | 0.00 | 77 | |
| 20260507153609 | 56 | 11 | 6.0 | 8.0 | 0.00 | 0.00 | 0.00 | 76 | |
| 20260507152530 | 56 | 5 | 6.0 | 9.0 | 0.00 | 0.00 | 0.00 | 76 | |
| 20260507151534 | 56 | 14 | 6.0 | 10.0 | 0.00 | 0.00 | 0.00 | 76 | |
| 20260507150526 | 56 | 19 | 5.0 | 9.0 | 0.00 | 0.00 | 0.00 | 76 | |
| 20260507145558 | 56 | 9 | 7.0 | 10.0 | 0.00 | 0.00 | 0.00 | 75 | |
| 20260507144538 | 56 | 17 | 5.0 | 8.0 | 0.00 | 0.00 | 0.00 | 75 | |
| 20260507143550 | 56 | 11 | 5.0 | 8.0 | 0.00 | 0.00 | 0.00 | 75 | |
| 20260507142544 | 56 | 32 | 7.0 | 10.0 | 0.00 | 0.00 | 0.00 | 75 | |
| 20260507141527 | 57 | 15 | 5.0 | 10.0 | 0.00 | 0.00 | 0.00 | 74 | |
| 20260507140601 | 57 | 19 | 5.0 | 9.0 | 0.00 | 0.00 | 0.00 | 74 | |
| 20260507135523 | 57 | 360 | 3.0 | 4.0 | 0.00 | 0.00 | 0.00 | 73 | |
| 20260507134552 | 57 | 360 | 4.0 | 8.0 | 0.00 | 0.00 | 0.00 | 72 | |
| 20260507133544 | 57 | 341 | 5.0 | 8.0 | 0.00 | 0.00 | 0.00 | 71 | |
| 20260507132528 | 57 | 12 | 1.0 | 5.0 | 0.00 | 0.00 | 0.00 | 69 | |
| 20260507131542 | 58 | 12 | 2.0 | 6.0 | 0.00 | 0.00 | 0.00 | 69 | |
| 20260507130526 | 58 | 12 | 4.0 | 7.0 | 0.00 | 0.00 | 0.00 | 69 | |
| 20260507125559 | 58 | 13 | 5.0 | 8.0 | 0.00 | 0.00 | 0.00 | 68 | |
| 20260507124521 | 58 | 360 | 3.0 | 5.0 | 0.00 | 0.00 | 0.00 | 68 | |
| 20260507123550 | 58 | 30 | 2.0 | 5.0 | 0.00 | 0.00 | 0.00 | 67 | |
| 20260507122542 | 59 | 29 | 4.0 | 6.0 | 0.00 | 0.00 | 0.00 | 66 | |
| 20260507121526 | 59 | 20 | 1.0 | 5.0 | 0.00 | 0.00 | 0.00 | 66 | |
| 20260507120541 | 59 | 18 | 1.0 | 6.0 | 0.00 | 0.00 | 0.00 | 64 | |
| 20260507115545 | 59 | 325 | 1.0 | 7.0 | 0.00 | 0.00 | 0.00 | 66 | |
| 20260507114538 | 59 | 355 | 3.0 | 7.0 | 0.00 | 0.00 | 0.00 | 65 | |
| 20260507113521 | 59 | 304 | 1.0 | 5.0 | 0.00 | 0.00 | 0.00 | 68 | |
| 20260507112550 | 59 | 304 | 5.0 | 7.0 | 0.00 | 0.00 | 0.00 | 70 | |
| 20260507111532 | 58 | 327 | 4.0 | 6.0 | 0.00 | 0.00 | 0.00 | 70 | |
| 20260507110524 | 58 | 42 | 1.0 | 5.0 | 0.00 | 0.00 | 0.00 | 70 | |
| 20260507105528 | 58 | 355 | 3.0 | 6.0 | 0.00 | 0.00 | 0.00 | 69 | |
| 20260507104521 | 58 | 16 | 3.0 | 5.0 | 0.00 | 0.00 | 0.00 | 70 | |
| 20260507103524 | 58 | 14 | 5.0 | 8.0 | 0.00 | 0.00 | 0.00 | 70 | |
| 20260507102537 | 58 | 49 | 1.0 | 4.0 | 0.00 | 0.00 | 0.00 | 69 | |
| 20260507101521 | 58 | 47 | 5.0 | 6.0 | 0.00 | 0.00 | 0.00 | 71 | |
| 20260507100530 | 57 | 290 | 2.0 | 5.0 | 0.00 | 0.00 | 0.00 | 70 | |
| 20260507095533 | 57 | 248 | 0.0 | 4.0 | 0.00 | 0.00 | 0.00 | 70 | |
| 20260507094546 | 57 | 242 | 2.0 | 7.0 | 0.00 | 0.00 | 0.00 | 69 | |
| 20260507093531 | 57 | 194 | 3.0 | 7.0 | 0.00 | 0.00 | 0.00 | 72 | |
| 20260507092543 | 57 | 157 | 3.0 | 5.0 | 0.00 | 0.00 | 0.00 | 70 | |
| 20260507091526 | 58 | 97 | 6.0 | 7.0 | 0.00 | 0.00 | 0.00 | 73 | |
| 20260507090539 | 57 | 149 | 2.0 | 10.0 | 0.00 | 0.00 | 0.00 | 76 | |
| 20260507085539 | 56 | 140 | 4.0 | 8.0 | 0.00 | 0.00 | 0.00 | 79 | |
| 20260507084552 | 56 | 116 | 5.0 | 7.0 | 0.00 | 0.00 | 0.00 | 82 | |
| 20260507083545 | 55 | 98 | 2.0 | 7.0 | 0.00 | 0.00 | 0.00 | 85 |